Showing default

KOMPSAT-7, 66820

Orbit data source: Space-Track

KOMPSAT-7, 66820 is a payload satellite owned by KARI (ESA) in SSO that was launched on Mon, 01 Dec 2025 UTC via a VEGA C launch vehicle from the French Guiana (FRGUI). Payload-class satellites include a variety of spacecraft equipped with specific instruments for various scientific and technological missions. These include communications satellites like Starlink; space stations such as the ISS; scientific satellites like the Hubble; Earth observation satellites from companies like Planet Labs, Umbra, and HawkEye 360; GPS; miniature CubeSats for education and research; and military/defense satellites.

Loading next visibility...
Identifier
66820, 2025-279A
Orbit
SSO
Country
Flag of ESAESA
Related business
Manufacturer
AP Aerospace
Mission
Operational Civil Imaging
Bus & Motor
KOMPSAT, AOCS?
Mass
1,800 kg wet, ~1,600 kg dry
Launch date (UTC)
2025-12-01 (7 months ago)
Launch vehicle
VEGA C
Launch site
French Guiana (FRGUI)
Object type
Payload
Rocket body
Debris
Shape & HBR
Hex Box + 3 Pan, 14.5 m
Radar Cross Section
20.168 m², Large (>1 m²)

Expand to show TLE details & history
Last TLE update: 12 hours ago

TLE from 12 hours ago
0 KOMPSAT-7
1 66820U 25279A   26171.34837301  .00001959  00000-0  16068-3 0  9991
2 66820  97.7082 119.8716 0009492   3.2265 356.9018 15.00368956 30099
Epoch: 2026-06-20T08:21Z
TLE epoch observation values (Epoch: 2026-06-20T08:21:39.428Z)
Latitude
-0.00001°
Longitude
85.89303°
Altitude
562.23 km
Speed
7.584 km/s
True Right ascension
07h 59m 29s
True Declination
0° 00' 00"
Sunlit
Object was in daylight at epoch
Visualization orbit readout
Latitude
Unknown
Longitude
Unknown
Altitude
Unknown
Speed
Unknown
Apparent Right ascension
Unknown
Apparent Declination
Unknown
Sunlit
N/A
Visualization observer readout
Local Sidereal Time
07:14:56
Azimuth
Unknown
Elevation
Unknown
Doppler factor
Unknown
Orbital elements
Apogee altitude
569.351 km
Perigee altitude
556.175 km
Semi-major axis
6,940.9 km
Eccentricity
0.00095
Inclination
97.7082°
RAAN
119.8716°
Arg. of periapsis
3.2265°
True anomaly
356.89591°
Mean anomaly
356.9018°
Eccentric anomaly
356.89886°
Mean motion
3.75335 °/min
Orbital period
95.91 mins
BSTAR
0.00016068
Loading maneuver chart data...
Computing Atmospheric mass density...
Loading historical data...
Loading historical data...
Loading historical data...
Loading historical data...
Loading historical data...
Loading historical data...
Loading historical data...
Other satellites on launch #279 in the year 2025 (2025-12-01 UTC)

Documentation

Showing up to 5 results
|